Погода в Кировограде

Погода в Кировограде : погода сейчас, прогноз погоды и архив. Всё, что Вы хотите узнать о погоде в Кировограде!

Хотите узнать прогноз погоды в Кировограде? Тогда Вам сюда: Погода в Кировограде

Поиск расширенной информации на нашем сайте:

Другие новости

Новости СМИ2

Главная страница сайта

Новости сайта

02.10.2013

Напоминаем, что на нашем новом сайте вы можете получить высокодетализированные прогнозы погоды по пунктам России, СНГ и мира (включающие важные для авиации метеовеличины, такие как направление и скорость ветра, видимость, явления погоды, количество и форма облачности, нижняя и верхняя граница облачности), а также ознакомиться с разнообразными материалами по авиационной метеорологии и подборкой полезных ссылок на эту тему.

Сайт Метеоцентр.Азия посвящён разработке технологий оптимизации авиаметеорологического обслуживания, включая проектирование и перспективное создание нескольких автоматизированных авиаметеорологических систем:
- система выпуска высокодетальных прогностических карт явлений погоды для нижнего воздушного пространства по России и ближнему зарубежью;
- система верификации прогнозов TAF (выпускаемых синоптиками официальных АМСГ РФ и ближнего зарубежья) и AUTOTAF (выпускаемых сайтом Метеоцентр.Азия) - выявление ошибок, онлайн-сопоставление с фактической погодой METAR, автоматическое внесение коррективов в прогнозы при резком отклонении фактической погоды от прогноза, подсчёт оправдываемости прогнозов по элементам и в целом;
- система обработки, анализа и отображения авиаметеорологической информации для применения провайдерами метеорологической информации.


Погода в Кировограде - сегодня

Время (UTC), дата Ветер
(°,м/с) 
Видим.   Явления Облачность Т
(°С)
Тd
(°С)
f(%) Тe
(°С)
Pmin
(гПа)
dP
(гПа)
Po
(мм)
O2
(г/м3)
Тmin Tmax R s Состояние
почвы
18 18.01.17 030 (СВ) 10 км    10/10 240 м 
[St]
-6.5 -8.1 88 -11  1039.4  0.7  763  316    -6.2       
21 18.01.17 040 (СВ) 10 км    10/10 300 м 
[St]
-6.4 -8.4 86 -9  1039.9  0.5  763  316           
00 19.01.17 020 (С) 10 км    6/6 400 м 
[St]
-7.9 -9.3 90 -9  1039.7  -0.3  763  317           
03 19.01.17 020 (С) 0500 м  переохл. туман  ?/?  
-11.6 -11.6 100 -14  1040.1  0.1  763  322           
06 19.01.17 010 (С) 4000 м  дымка{туман}  ясно 
-14.4 -15.5 91 -18  1041  0.6  763  326  -14.9      равномерный
мокрый или
старый снег
100% 
09 19.01.17 320 (СЗ) 10 км    ясно 
-11.4 -13.6 84 -15  1041.3  0.5  764  322           
12 19.01.17 290 (З) 10 км    ясно 
-7.9 -11 78 -9  1039.3  -1.6  763  317           
15 19.01.17 310 (СЗ) 0500 м  туман  ?/?  
-9.8 -9.8 100 -13  1039.2  -0.3  762  320           
18 19.01.17 280 (З) 0500 м  переохл. туман  ?/?  
-10.1 -10.1 100 -10  1038.5  -0.7  762  320    -7.7       
21 19.01.17 тихо ()   1000 м  дымка{туман}  10/10 100 м 
[St]
-8.2 -8.4 98 -8  1037.3  -1  761  317           
00 20.01.17 270 (З) 2000 м  дымка{туман}  10/10 300 м 
[St]
-8.2 -8.8 95 -11  1036.1  -1.2  760  317           
03 20.01.17 280 (З) 10 км    ясно 
-10.8 -11.6 94 -13  1034.7  -1.6  759  320           
06 20.01.17 270 (З) 10 км    4/0 верхняя 
[Ci fib]
-12 -13 92 -15  1033.4  -1.3  758  321  -12.5      равномерный
мокрый или
старый снег
100% 
09 20.01.17 280 (З) 20000 м    3/0 верхняя 
[Ci fib]
-7.6 -11.1 76 -11  1032.1  -0.9  757  315           
12 20.01.17 250 (З) 20000 м    9/6 870 м средняя 
[Sc|Ac trans]
-4.2 -10.2 63 -7  1029.3  -2.5  755  310           
15 20.01.17 280 (З) 20000 м    9/8 500 м средняя 
[Sc|Ac trans]
-4.4 -9.1 70 -8  1028.5  -0.8  755  310           
18 20.01.17 290 (З) 10 км    10/10 300 м 
[St]
-4.2 -6.1 87 -7  1027.9  -0.6  754  309    -4       
21 20.01.17 290 (З) 10 км  в посл. час морось{снег}  10/10 330 м 
[St]
-4.3 -5.9 89 -6  1027.5  -0.4  754  309           
00 21.01.17 290 (З) 10 км  {снег}  10/10 210 м 
[St]
-4 -5.5 89 -6  1026.5  -0.9  753  309      0.2     
03 21.01.17 300 (СЗ) 10 км    10/10 300 м 
[St]
-3.7 -5.2 89 -5  1025  -1.4  752  308           
06 21.01.17 280 (З) 10 км    10/10 270 м 
[St]
-3.2 -4.6 90 -5  1024.4  -0.6  752  307  -4.3    0.2  равномерный
сухой снег
100% 
09 21.01.17 300 (СЗ) 10 км    10/10 330 м 
[St]
-1.4 -3.7 84 -5  1024.4  0.2  752  305           
12 21.01.17 300 (СЗ) 10 км    10/10 180 м 
[St]
-0.7 -3.2 83 -4  1023.1  -1.3  751  304           
15 21.01.17 310 (СЗ) 10 км    10/10 300 м 
[St]
-0.3 -2.4 86 -3  1023.5  0.5  751  303           
18 21.01.17 310 (СЗ) 10 км  слаб. ливневой снег  10/10 720 м кучево-дожд. 
[Cb calv]
-0.1 -2.4 84 -3  1025  1.4  752  304    -0.1  0.0     
Время (UTC), дата Ветер
(°,м/с) 
Видим.   Явления Облачность Т
(°С)
Тd
(°С)
f(%) Тe
(°С)
Pmin
(гПа)
dP
(гПа)
Po
(мм)
O2
(г/м3)
Тmin Tmax R s Состояние
почвы

Для получения пояснительной информации подведите курсор к названию столбца.

ПОГОДА в Кировограде - архив

Всё, что Вы хотите узнать о погоде в Кировограде - удобно и подробно!

Выберите нужную дату (начиная с 1 января 2015* года) и нажмите кнопку "Найти".
Будут отображены архивные сводки погоды по пункту Кировоград, начиная с указанной даты.


Отображать данные в формате CSV (для использования в таблицах Excel)


Внимание! Наш архив погоды предназначен исключительно для личного некоммерческого использования в познавательных целях. Если Вам необходимы официальные справки о состоянии погоды (для производственных, юридических, коммерческих и т.п. целей), обращайтесь в органы Росгидромета.

*Примечание: данная дата относится к архиву по метеостанциям СССР (Россия, СНГ, Балтия).
Архив по метеостанциям Зарубежной Европы и Азии (кроме Китая) хранится 10 дней, по другим регионам земного шара (Китай, Африка, Америка, Австралия, Океания) - 1 день.

Кировоград - район местоположения метеостанции


Название, широта, долгота, высота метеостанции:
Кировоград 48.5°ш. 32.2°д. 171 м над ур. моря [Украина]

Дополнительная информация

В oтличие oт бoльшинства пoгoдных сайтoв мы публикуем пoдрoбную метеoинфoрмацию в детальнoм прoфессиoнальнoм фoрмате.

Характеристики температуры и влажнoсти вoздуха измеряются на высoте 2 м в тени вдали oт зданий и деревьев.
Скoрoсть ветра измеряется на высoте 10 м (на урoвне рoста челoвека скoрoсть ветра ниже в 1.5-2 раза). Если метеoстанция нахoдится в гoрoде или в лесу, тo скoрoсть ветра занижена на 2-4 м/с пo сравнению с oткрытым местoм. Скoрoсть ветра над акватoриями крупных рек и oзёр, а также на вершинах хoлмoв на 2-5 м/с выше, чем в oбычных услoвиях.
Атмoсфернoе давление в разных тoчках местнoсти мoжет значительнo oтличаться oт давления на метеoстанции, в зависимoсти oт услoвий рельефа (при пoдъёме на 10 м давление пoнижается примернo на 1 мм рт.ст.).